[[{"header":{"parameterUnit":"m.s-1","parameterCategory":1,"la1":30.2991,"la2":30.254,"lo1":-89.0895,"lo2":-89.0444,"dy":0.0017,"dx":0.0017,"nx":28,"ny":28,"refTime":"2024-06-14T09:00:00:Z","depth":0,"parameterNumber":2,"parameterNumberName":"U-component_of_WINDS"},"data":[0,0,0,0,0,0,0,0,0,0,0,0,0,0,0,0,0,0,0,0,0,0,0,0,0,0,0,0,0,0,0,0,0,0,0,0,0,0,0,0,0,0,0,0,0,0,0,0,0,0,0,0,0,0,0,0,0,0,-1.8615,-1.8615,0,-1.8576,-1.8576,-1.8575,-1.8555,-1.8555,-1.8555,-1.8555,-1.8515,-1.8515,-1.8514,0,0,0,0,0,0,0,0,0,0,0,0,0,-1.8673,-1.8672,-1.8615,-1.8615,-1.8614,-1.8576,-1.8576,-1.8575,-1.8555,-1.8555,-1.8555,-1.8555,-1.8516,-1.8515,-1.8513,0,0,0,0,0,0,0,0,0,0,0,0,0,-1.8642,-1.8672,-1.8615,-1.8599,-1.8598,-1.8577,-1.8576,-1.8575,-1.8555,-1.8555,-1.8555,-1.8555,-1.8516,-1.8515,-1.8513,-1.8505,0,0,-1.8509,-1.8508,0,0,0,0,0,0,0,0,-1.8644,-1.864,-1.8602,-1.8601,-1.8598,-1.857,-1.8582,-1.8552,-1.8555,-1.8571,-1.8555,-1.8555,-1.8534,-1.8531,-1.8524,-1.8503,-1.8502,-1.8508,-1.8508,-1.8507,-1.8507,0,0,0,0,0,0,0,-1.8646,-1.8642,-1.86,-1.8602,-1.8599,-1.8595,-1.859,-1.8576,-1.8553,-1.857,-1.8568,-1.8564,-1.8533,-1.8525,-1.8523,-1.8501,-1.8509,-1.8507,-1.8506,-1.8506,-1.8473,-1.8473,0,0,0,0,0,0,-1.8651,-1.8644,-1.8601,-1.8599,-1.8622,-1.8594,-1.8589,-1.8579,-1.8553,-1.8549,-1.8564,-1.8563,-1.8528,-1.8524,-1.8521,-1.851,-1.8507,-1.8506,-1.8505,-1.8473,-1.8473,-1.8473,0,0,0,0,0,0,-1.8652,-1.8647,-1.8603,-1.8621,-1.8615,-1.8593,-1.8582,-1.8579,-1.8571,-1.8549,-1.8545,-1.856,-1.8528,-1.8523,-1.8509,-1.8509,-1.8505,-1.8503,-1.8473,-1.8473,-1.8473,-1.8489,0,0,0,0,0,0,-1.8654,-1.8648,-1.8644,-1.8621,-1.8614,-1.8591,-1.8582,-1.8578,-1.8568,-1.8567,-1.8544,-1.8541,-1.8527,-1.8512,-1.8508,-1.8507,-1.8502,-1.8473,-1.8473,-1.8473,-1.8488,-1.8489,-1.849,0,0,0,0,0,-1.8656,-1.865,-1.8644,-1.8639,-1.8609,-1.8591,-1.8587,-1.8572,-1.8569,-1.8565,-1.8551,-1.8541,-1.851,-1.8511,-1.8506,-1.8504,-1.8473,-1.8473,-1.8473,-1.8488,-1.8489,-1.849,0,0,0,0,0,0,-1.8674,-1.8647,-1.864,-1.8626,-1.8611,-1.8588,-1.8583,-1.8574,-1.8559,-1.8558,-1.854,-1.8535,-1.8523,-1.8512,-1.8514,-1.8496,-1.849,-1.8489,-1.8503,-1.8504,-1.8505,-1.8508,-1.8501,0,0,0,0,0,-1.8676,-1.8664,-1.8641,-1.8631,-1.8624,-1.8605,-1.8596,-1.8586,-1.857,-1.8563,-1.8548,-1.8533,-1.852,-1.8511,-1.8498,-1.8487,-1.8482,-1.8483,-1.8484,-1.8485,-1.8485,-1.8479,-1.848,-1.8473,-1.8473,-1.8473,0,0,-1.868,-1.8664,-1.8658,-1.8634,-1.8621,-1.8609,-1.8599,-1.8587,-1.8578,-1.8561,-1.8547,-1.8536,-1.8518,-1.8506,-1.85,-1.8496,-1.8486,-1.8485,-1.8486,-1.8485,-1.8479,-1.848,-1.848,-1.8473,-1.8473,-1.8473,0,0,-1.8683,-1.8669,-1.866,-1.8647,-1.8628,-1.8616,-1.8613,-1.8592,-1.8583,-1.8569,-1.8557,-1.8546,-1.8523,-1.8511,-1.8502,-1.8501,-1.8492,-1.8497,-1.8503,-1.8497,-1.8498,-1.8498,-1.8499,-1.8499,-1.8497,-1.8497,-1.8497,0,-1.8691,-1.8672,-1.8656,-1.8645,-1.8635,-1.8619,-1.861,-1.8599,-1.8576,-1.857,-1.8567,-1.8539,-1.8526,-1.8511,-1.8511,-1.8504,-1.8501,-1.85,-1.8499,-1.8499,-1.8499,-1.85,-1.85,-1.8498,-1.8498,-1.8498,-1.8498,0,-1.8683,-1.8671,-1.8666,-1.8644,-1.8634,-1.8624,-1.8607,-1.8598,-1.8589,-1.8577,-1.8563,-1.8547,-1.853,-1.8526,-1.8517,-1.851,-1.8509,-1.8503,-1.8497,-1.8501,-1.8501,-1.8501,-1.8499,-1.8499,-1.8498,-1.8498,0,0,-1.8695,-1.8666,-1.8664,-1.8655,-1.8633,-1.8623,-1.8613,-1.8596,-1.859,-1.8575,-1.8566,-1.8548,-1.8542,-1.8532,-1.8521,-1.8517,-1.8518,-1.8511,-1.851,-1.8513,-1.851,-1.8515,-1.8516,-1.8512,-1.8512,-1.8512,-1.8512,0,-1.8694,-1.8674,-1.866,-1.8646,-1.8634,-1.862,-1.8611,-1.8597,-1.8586,-1.8575,-1.8563,-1.855,-1.8543,-1.8537,-1.8532,-1.8519,-1.8517,-1.8519,-1.8504,-1.8504,-1.8509,-1.8515,-1.852,-1.8521,-1.8512,-1.8512,-1.8512,0,-1.8691,-1.8677,-1.8661,-1.8642,-1.8637,-1.8629,-1.8613,-1.8603,-1.8587,-1.8579,-1.8568,-1.8558,-1.8547,-1.8542,-1.8527,-1.8529,-1.8522,-1.8515,-1.8514,-1.8512,-1.8508,-1.8514,-1.8521,-1.8521,-1.8511,-1.8511,-1.8511,0,-1.8701,-1.8679,-1.8667,-1.8659,-1.8636,-1.8631,-1.8621,-1.8605,-1.8597,-1.8583,-1.8578,-1.8563,-1.8555,-1.8545,-1.8531,-1.8529,-1.8517,-1.8512,-1.8511,-1.8512,-1.8509,-1.851,-1.8516,-1.8505,-1.8505,-1.8505,-1.8505,0,-1.8702,-1.8693,-1.8671,-1.8664,-1.8654,-1.8638,-1.8629,-1.8618,-1.8604,-1.8595,-1.8582,-1.8574,-1.8555,-1.8545,-1.8534,-1.8524,-1.852,-1.8514,-1.8512,-1.8516,-1.8516,-1.8511,-1.8511,-1.8505,-1.8505,-1.8505,-1.8505,0,-1.8712,-1.8696,-1.8683,-1.8662,-1.8657,-1.8651,-1.8633,-1.8626,-1.8614,-1.8603,-1.86,-1.8582,-1.8569,-1.8554,-1.8536,-1.8529,-1.852,-1.8516,-1.8525,-1.8524,-1.8524,-1.8525,-1.8527,-1.8527,-1.8516,-1.8516,-1.8516,0,-1.8713,-1.8706,-1.8685,-1.8678,-1.8669,-1.8657,-1.8649,-1.8633,-1.8625,-1.8607,-1.8602,-1.8589,-1.8577,-1.8558,-1.8543,-1.853,-1.8526,-1.8527,-1.8523,-1.8528,-1.8526,-1.8527,-1.8526,-1.8529,-1.8529,-1.8529,-1.8529,0,-1.8717,-1.8711,-1.8698,-1.8684,-1.8674,-1.8662,-1.865,-1.8645,-1.8627,-1.8618,-1.8605,-1.8596,-1.8579,-1.8566,-1.8551,-1.8542,-1.8533,-1.853,-1.853,-1.8534,-1.854,-1.8537,-1.8528,-1.853,-1.853,-1.853,-1.853,-1.853,-1.8723,-1.8717,-1.8701,-1.8689,-1.8678,-1.8667,-1.8659,-1.8647,-1.8636,-1.862,-1.8612,-1.8599,-1.8585,-1.8564,-1.8555,-1.8546,-1.8542,-1.8541,-1.8541,-1.8541,-1.8542,-1.8541,-1.8543,-1.8543,-1.8543,-1.8543,-1.8543,0,-1.8727,-1.8717,-1.8705,-1.8688,-1.8679,-1.8671,-1.8657,-1.865,-1.8639,-1.8626,-1.8615,-1.8601,-1.8589,-1.8574,-1.8561,-1.8556,-1.8552,-1.8553,-1.8554,-1.8552,-1.8546,-1.8548,-1.8557,-1.8557,-1.8557,-1.8557,-1.8557,-1.8557,-1.8728,-1.8717,-1.8709,-1.8692,-1.8682,-1.867,-1.8662,-1.8652,-1.8642,-1.8627,-1.8617,-1.8607,-1.8594,-1.858,-1.8569,-1.8565,-1.8561,-1.8564,-1.8558,-1.8553,-1.8552,-1.8551,-1.8553,-1.8563,-1.8563,-1.8565,-1.8565,-1.8565]},{"header":{"parameterUnit":"m.s-1","parameterCategory":1,"la1":30.2991,"la2":30.254,"lo1":-89.0895,"lo2":-89.0444,"dy":0.0017,"dx":0.0017,"nx":28,"ny":28,"refTime":"2024-06-14T09:00:00:Z","depth":0,"parameterNumber":3,"parameterNumberName":"V-component_of_WINDS"},"data":[0,0,0,0,0,0,0,0,0,0,0,0,0,0,0,0,0,0,0,0,0,0,0,0,0,0,0,0,0,0,0,0,0,0,0,0,0,0,0,0,0,0,0,0,0,0,0,0,0,0,0,0,0,0,0,0,0,0,0.7737,0.7737,0,0.7778,0.7778,0.7779,0.7831,0.7832,0.7832,0.7833,0.7875,0.7875,0.7876,0,0,0,0,0,0,0,0,0,0,0,0,0,0.7702,0.7702,0.7737,0.7738,0.7738,0.7778,0.7778,0.7779,0.7831,0.7832,0.7833,0.7834,0.7875,0.7875,0.7876,0,0,0,0,0,0,0,0,0,0,0,0,0,0.7727,0.7702,0.7737,0.7769,0.7772,0.7778,0.7779,0.7779,0.783,0.7832,0.7833,0.7834,0.7875,0.7875,0.7876,0.7854,0,0,0.7877,0.7877,0,0,0,0,0,0,0,0,0.7726,0.7729,0.7763,0.7766,0.777,0.7801,0.7781,0.7804,0.783,0.7808,0.7833,0.7835,0.7849,0.7852,0.7857,0.7856,0.7858,0.7877,0.7878,0.7878,0.7878,0,0,0,0,0,0,0,0.7724,0.7727,0.7753,0.7764,0.7768,0.778,0.7785,0.7786,0.7821,0.781,0.7814,0.7818,0.7851,0.7856,0.7858,0.7858,0.7877,0.7878,0.7878,0.7878,0.7838,0.7837,0,0,0,0,0,0,0.7718,0.7725,0.7752,0.7755,0.7751,0.778,0.7785,0.7789,0.7821,0.7827,0.7817,0.782,0.7855,0.7857,0.786,0.7834,0.7878,0.7878,0.7879,0.7839,0.7838,0.7836,0,0,0,0,0,0,0.7717,0.7719,0.775,0.7741,0.7746,0.7779,0.7783,0.779,0.7795,0.7826,0.7833,0.7816,0.7856,0.7859,0.7854,0.7836,0.7878,0.7879,0.7841,0.7839,0.7837,0.7783,0,0,0,0,0,0,0.7715,0.7719,0.7711,0.774,0.7746,0.7744,0.7782,0.779,0.7795,0.78,0.7827,0.7833,0.7857,0.7853,0.7855,0.7837,0.7879,0.7843,0.784,0.7838,0.7786,0.7779,0.7773,0,0,0,0,0,0.7714,0.7695,0.7711,0.7714,0.7737,0.7743,0.7746,0.7775,0.7794,0.7786,0.7806,0.7832,0.7838,0.7852,0.7854,0.7837,0.7844,0.7841,0.7838,0.7789,0.778,0.7773,0,0,0,0,0,0,0.7664,0.77,0.7717,0.7708,0.7722,0.7752,0.7743,0.7765,0.7775,0.7779,0.7814,0.7819,0.7809,0.7823,0.7838,0.7816,0.7845,0.7842,0.7807,0.7799,0.7792,0.7788,0.788,0,0,0,0,0,0.7652,0.7653,0.7685,0.7673,0.7679,0.771,0.7713,0.7734,0.775,0.7757,0.7777,0.7791,0.7796,0.7799,0.7806,0.7789,0.7794,0.7778,0.7771,0.7766,0.7762,0.7751,0.7743,0.7826,0.7826,0.7826,0,0,0.7626,0.7646,0.7645,0.7663,0.7677,0.7677,0.7715,0.7714,0.7714,0.7757,0.7752,0.7767,0.7786,0.7774,0.777,0.7785,0.774,0.7762,0.7757,0.7756,0.7747,0.7739,0.7732,0.7824,0.7824,0.7825,0,0,0.758,0.7596,0.7586,0.7599,0.7618,0.7638,0.7636,0.7662,0.7674,0.767,0.7701,0.7702,0.7711,0.7721,0.7728,0.7683,0.7706,0.7684,0.7649,0.7638,0.7631,0.7625,0.7606,0.7599,0.7681,0.7681,0.7681,0,0.7545,0.7547,0.7579,0.7575,0.7581,0.7619,0.7608,0.7619,0.764,0.7642,0.766,0.7669,0.7685,0.7675,0.7663,0.7669,0.7665,0.768,0.763,0.7624,0.7619,0.7601,0.7594,0.7678,0.7678,0.7679,0.7679,0,0.7503,0.7503,0.7493,0.7511,0.7516,0.7509,0.7538,0.7539,0.7559,0.7577,0.7571,0.7591,0.7601,0.7601,0.7621,0.7592,0.7601,0.7623,0.7652,0.7608,0.7591,0.7585,0.7674,0.7675,0.7676,0.7677,0,0,0.7425,0.7459,0.7455,0.7462,0.7485,0.7486,0.748,0.7489,0.7488,0.7501,0.7495,0.7501,0.7521,0.7528,0.755,0.7541,0.75,0.7564,0.7565,0.7549,0.7466,0.7446,0.7438,0.7516,0.7515,0.7514,0.7463,0,0.7381,0.7372,0.7399,0.7383,0.7382,0.7417,0.7412,0.7425,0.7441,0.7443,0.7461,0.7463,0.7491,0.7495,0.7488,0.7506,0.7483,0.7511,0.7509,0.7508,0.75,0.743,0.7411,0.7362,0.7457,0.7456,0.7456,0,0.7328,0.7336,0.7319,0.7341,0.7342,0.7336,0.7345,0.7347,0.7362,0.7374,0.7381,0.7406,0.74,0.7429,0.742,0.7438,0.7439,0.7448,0.7447,0.7446,0.7477,0.7424,0.7347,0.7338,0.7447,0.7447,0.7448,0,0.7268,0.7276,0.7266,0.7272,0.7298,0.7292,0.7303,0.732,0.7322,0.733,0.7332,0.734,0.7343,0.7348,0.7373,0.7393,0.736,0.7392,0.7368,0.7367,0.7357,0.7357,0.7276,0.7363,0.7363,0.7363,0.7363,0,0.7214,0.7202,0.7239,0.7233,0.7219,0.725,0.7236,0.725,0.7264,0.726,0.7293,0.7288,0.7323,0.7322,0.7342,0.733,0.7332,0.734,0.7345,0.7335,0.7334,0.7335,0.7337,0.7361,0.7362,0.7362,0.7363,0,0.7145,0.717,0.7161,0.7186,0.7192,0.718,0.7201,0.7196,0.7214,0.7208,0.7209,0.7237,0.7237,0.7263,0.727,0.7283,0.7261,0.7274,0.7255,0.7258,0.723,0.7231,0.7145,0.7134,0.723,0.7229,0.7229,0,0.7107,0.7098,0.7122,0.7121,0.7129,0.7129,0.7131,0.7161,0.7162,0.7177,0.7169,0.7172,0.7175,0.7174,0.7194,0.7198,0.7209,0.7179,0.721,0.7199,0.7205,0.7203,0.7201,0.7171,0.717,0.7169,0.7168,0,0.7036,0.7049,0.7051,0.7056,0.7058,0.7064,0.7073,0.707,0.7103,0.7102,0.7102,0.7105,0.711,0.7111,0.7119,0.7129,0.7153,0.7158,0.7152,0.7141,0.7129,0.7131,0.7233,0.716,0.7161,0.7161,0.7162,0.7162,0.698,0.6972,0.6986,0.6987,0.6996,0.7002,0.6997,0.7014,0.7014,0.702,0.7038,0.7034,0.7047,0.706,0.7068,0.7065,0.708,0.7072,0.7069,0.7066,0.7059,0.7132,0.7067,0.7067,0.7067,0.7067,0.7068,0,0.6907,0.6918,0.6918,0.6928,0.6927,0.6951,0.696,0.6958,0.6954,0.6965,0.6967,0.6965,0.6966,0.6986,0.6989,0.6982,0.6993,0.6982,0.6981,0.6982,0.7047,0.705,0.6973,0.6973,0.6973,0.6973,0.6973,0.6973,0.687,0.6856,0.687,0.6861,0.6872,0.6867,0.687,0.6876,0.6884,0.688,0.6881,0.6894,0.6907,0.6911,0.6912,0.6918,0.6916,0.69,0.6909,0.6969,0.6978,0.6987,0.699,0.6901,0.6901,0.6844,0.6844,0.6843]}]]